Regional Weather Roundup
Issued by NWS

Home | Current Version | Previous Version | Graphics & Text | Print | Product List | Glossary On
Versions: 1 2 3 4 5 6 7 8 9 10 11 12 13 14 15 16 17 18 19 20 21 22 23 24 25 26 27 28 29 30 31 32 33 34 35 36 37 38 39 40 41 42 43 44 45 46 47 48 49 50
000
ASUS43 KOAX 281010
RWRNE

WEATHER ROUNDUP FOR NEBRASKA
NATIONAL WEATHER SERVICE OMAHA NE
500 AM CDT FRI AUG 28 2015

NOTES: SATELLITE DATA IS BEING USED TO AUGMENT CLOUD COVER ABOVE
       12000 FEET.
       "FAIR" INDICATES FEW OR NO CLOUDS BELOW 12,000 FEET WITH NO
       SIGNIFICANT WEATHER AND/OR OBSTRUCTIONS TO VISIBILITY.

  * THESE STATIONS DO NOT REPORT WEATHER SUCH AS RAIN...SNOW OR FOG.

NEZ001>004-019>022-054>056-281100-
NEBRASKA PANHANDLE

CITY           SKY/WX    TMP DP  RH WIND       PRES   REMARKS
SCOTTSBLUFF    CLEAR     57  55  93 NW6       30.07S
ALLIANCE       CLEAR     50  49  96 W6        30.04S
CHADRON        CLEAR     54  51  90 S5        30.01S
KIMBALL        PTCLDY    60  53  78 NW10      30.11R
SIDNEY         PTCLDY    58  54  86 NW10      30.09S
$$

NEZ057>060-069>072-079>082-281100-
SOUTHWEST NEBRASKA

CITY           SKY/WX    TMP DP  RH WIND       PRES   REMARKS
NORTH PLATTE   PTCLDY    61  60  97 CALM      29.94S
IMPERIAL       CLEAR     61  56  83 NW13      30.00R
LEXINGTON      CLEAR     69  67  93 W9        29.89R
MCCOOK         CLEAR     66  62  87 W13       29.93S
OGALLALA       CLEAR     60  58  94 W3        30.00S
$$

NEZ005>010-023>029-035>040-094-281100-
NORTH CENTRAL NEBRASKA

CITY           SKY/WX    TMP DP  RH WIND       PRES   REMARKS
AINSWORTH      CLOUDY    68  67  99 NW9       29.90S FOG
BROKEN BOW     CLOUDY    70  67  90 NW10      29.88R FOG
O`NEILL        CLOUDY    66  65  97 NE3       29.86R FOG
ORD            CLOUDY    67  65  93 NW8       29.83F
THEDFORD       CLOUDY    65  64  94 NW9       29.95S
$$

NEZ041-046>049-061>064-073>077-083>087-281100-
SOUTH CENTRAL NEBRASKA

CITY           SKY/WX    TMP DP  RH WIND       PRES   REMARKS
GRAND ISLAND   CLEAR     69  66  90 SW10      29.82S
AURORA         PTCLDY    69  69  98 SW6       29.82S
HASTINGS       CLEAR     69  67  93 SW3       29.83R
HEBRON         PTCLDY    73  65  77 S13G23    29.83S
HOLDREGE       MOCLDY    67  65  94 W6        29.87R FOG
KEARNEY *      CLOUDY    68  64  88 NW7       29.86R
YORK           MOCLDY    72  68  88 SW8       29.82F
$$

NEZ011>018-030>034-042>045-281100-
NORTHEAST NEBRASKA

CITY           SKY/WX    TMP DP  RH WIND       PRES   REMARKS
NORFOLK        CLOUDY    68  66  93 SE6       29.79F
ALBION         CLOUDY    68  65  92 NW3       29.82S FOG
BLAIR          RAIN      67  64  91 SE15G24   29.82F
COLUMBUS *     CLOUDY   N/A N/A N/A SE5       29.80F
FREMONT        LGT RAIN  69  67  91 SE15G25   29.81F
TEKAMAH        HVY RAIN  68  66  93 S10       29.82F FOG
WAYNE          CLOUDY    67  65  94 E8        29.82F
$$

NEZ050>053-065>068-078-088>093-281100-
SOUTHEAST NEBRASKA

CITY           SKY/WX    TMP DP  RH WIND       PRES   REMARKS
LINCOLN        CLOUDY    71  67  87 S8        29.83S
OMAHA EPPLEY   LGT RAIN  69  66  90 SE20      29.83F
BEATRICE       CLOUDY    73  65  77 S17G24    29.83F
FALLS CITY     CLOUDY    68  65  90 E8        29.91S
NEBRASKA CITY  CLOUDY    67  67  99 S16G22    29.87F
PLATTSMOUTH    CLOUDY    68  65  92 SE17G23   29.85S
$$

NEZ044-045-051>053-067-281100-
OMAHA AREA

CITY           SKY/WX    TMP DP  RH WIND       PRES   REMARKS
OMAHA EPPLEY   LGT RAIN  69  66  90 SE20      29.83F
BLAIR          RAIN      67  64  91 SE15G24   29.82F
FREMONT        LGT RAIN  69  67  91 SE15G25   29.81F
MILLARD        CLOUDY    70  67  89 SE14      29.82F
OFFUTT AFB     CLOUDY    67  67 100 SE17      29.83S
PLATTSMOUTH    CLOUDY    68  65  92 SE17G23   29.85S
WAHOO          CLOUDY    69  67  93 S14G21    29.81F
$$




USA.gov is the U.S. government's official web portal to all federal, state and local government web resources and services.